Regional Weather Roundup
Issued by NWS State College, PA

Home | Current Version | Previous Version | Graphics & Text | Print | Product List | Glossary On
Versions: 1 2 3 4 5 6 7 8 9 10 11 12 13 14 15 16 17 18 19 20 21 22 23 24 25 26 27 28 29 30 31 32 33 34 35 36 37 38 39 40 41 42 43 44 45 46 47 48 49 50
250
ASUS41 KCTP 192310
RWRCTP

REGIONAL WEATHER ROUNDUP
NATIONAL WEATHER SERVICE STATE COLLEGE PA
700 PM EDT SAT AUG 19 2017

Note: "fair" indicates few or no clouds below 12,000 feet with no
significant weather and/or obstructions to visibility.

* = STATION THAT DOES NOT REPORT PRECIPITATION /E.G. RAIN...SNOW...ETC/
    THUNDER OR FOG.

PAZ002>004-007>009-013>016-020>023-029>032-200000-
WESTERN PENNSYLVANIA

CITY           SKY/WX    TMP DP  RH WIND       PRES   REMARKS
ERIE           PTSUNNY   74  60  61 NW10G21   29.92R
MEADVILLE      MOSUNNY   71  61  70 NW6       29.96R
FRANKLIN*      PTSUNNY   72  61  68 NW7       29.96R
NEW CASTLE     FAIR      74  66  76 W5        29.95R
BEAVER COUNTY  NOT AVBL
BUTLER*        CLOUDY    67  62  84 SW5       29.97R
PITTSBURGH INT CLOUDY    69  65  86 SW5       29.95R
PITTSBURGH     MOSUNNY   66  61  84 SE7       29.96R
INDIANA*       MOSUNNY   63  61  94 SW7       30.01S
LATROBE        NOT AVBL
WASHINGTON CO* PTSUNNY   66  61  82 CALM      29.97R
$$

PAZ004>006-010>012-017>019-024>028-033>037-041-042-045-046-049>053-200000-
CENTRAL PENNSYLVANIA

CITY           SKY/WX    TMP DP  RH WIND       PRES   REMARKS
BRADFORD       PTSUNNY   67  64  90 W6        29.95R
DUBOIS         CLOUDY    61  58  90 CALM      29.95R
CLEARFIELD     CLOUDY    62  61  96 SW14      29.96R
JOHNSTOWN      LGT RAIN  61  58  90 W3        30.00F
ALTOONA        LGT RAIN  64  58  80 CALM      29.98S
STATE COLLEGE  RAIN      66  59  77 SW6       29.95F
WILLIAMSPORT   PTSUNNY   80  67  64 S6        29.82S
SELINSGROVE    SUNNY     79  68  69 SW3       29.86R
FT INDIANTOWN  CLEAR     82  68  62 SW5       29.85F
CAPITAL CITY   MOSUNNY   84  66  54 S5        29.87R
HARRISBURG     PTCLDY    83  67  58 SW6       29.86R
YORK           SUNNY     82  67  60 SW3       29.89R
$$

PAZ038>040-043-044-047-048-054-055-060>062-067>071-200000-
EASTERN PENNSYLVANIA

CITY           SKY/WX    TMP DP  RH WIND       PRES   REMARKS
SCRANTON       CLEAR     80  63  55 SW8       29.86S
MOUNT POCONO     N/A     74  62  66 W8        29.92S
ALLENTOWN      CLEAR     81  65  58 W9        29.86R
QUAKERTOWN*    CLEAR     81  66  61 W5        29.89R
READING        CLEAR     83  67  58 SW6       29.86R
LANCASTER      PTCLDY    84  66  54 SW10      29.88R
COATESVILLE    CLEAR     81  68  65 CALM      29.91R
POTTSTOWN      CLEAR     81  66  60 W5        29.89R
BLUE BELL      CLEAR     81  64  57 W3        29.89R
DOYLESTOWN     CLEAR     82  64  54 SW5       29.86R
WILLOW GROVE   NOT AVBL
NORTH PHILA    CLEAR     85  64  49 W8        29.87R
PHILADELPHIA   PTCLDY    86  63  45 W9        29.87R
$$




USA.gov is the U.S. government's official web portal to all federal, state and local government web resources and services.